Location: Bottom School (historical)
(37.9078°N, 89.3593°W)
Time: 18:37:13
(UTC+00:00)

STRAND 1 - Pass Details

Date: 05 April 2023
Orbit: 767 x 779 km, 98.4° (Epoch: 30 May)

Event Time Altitude Azimuth Distance (km) Brightness Sun altitude
Rises 01:13:11 0° 6° (N) 3,244 ? -10.5°
Reaches altitude 10° 01:15:33 10° 1° (N) 2,313 ? -10.9°
Maximum altitude 01:20:26 48° 288° (WNW) 993 ? -11.8°
Drops below altitude 10° 01:25:18 10° 215° (SW) 2,300 ? -12.8°
Sets 01:27:39 0° 209° (SSW) 3,224 ? -13.2°
